This is the latest recevied weather packets stored in our database for station/object NK7E-2. If no packets are shown the sender has not sent any weather packets the latest 10 day(s).
| Time | Temp. | Humidity | Pressure | Rain* | Wind** | Luminosity | Snow |
|---|---|---|---|---|---|---|---|
| 1777736117 | 20.56° C | 38% | 1024.9 hPa | 0 mm | - | - | - |
| 1777735518 | 20° C | 39% | 1024.6 hPa | 0 mm | - | - | - |
| 1777734917 | 20° C | 40% | 1024.5 hPa | 0 mm | - | - | - |
| 1777734317 | 20° C | 40% | 1024.7 hPa | 0 mm | - | - | - |
| 1777733717 | 20° C | 41% | 1024.6 hPa | 0 mm | - | - | - |
| 1777733117 | 19.44° C | 42% | 1024.7 hPa | 0 mm | - | - | - |
| 1777732517 | 19.44° C | 42% | 1024.6 hPa | 0 mm | - | - | - |
| 1777731918 | 18.89° C | 43% | 1024.5 hPa | 0 mm | - | - | - |
| 1777731317 | 18.89° C | 44% | 1024.4 hPa | 0 mm | - | - | - |
| 1777730717 | 18.33° C | 45% | 1024.1 hPa | 0 mm | - | - | - |
| 1777730117 | 18.33° C | 47% | 1024.5 hPa | 0 mm | - | - | - |
| 1777729517 | 17.78° C | 47% | 1023.9 hPa | 0 mm | - | - | - |
| 1777728918 | 17.78° C | 48% | 1023.8 hPa | 0 mm | - | - | - |
| 1777728317 | 17.22° C | 50% | 1023.7 hPa | 0 mm | - | - | - |
| 1777727717 | 17.22° C | 50% | 1023.4 hPa | 0 mm | - | - | - |
| 1777727116 | 17.22° C | 50% | 1023.4 hPa | 0 mm | - | - | - |
| 1777726517 | 17.22° C | 50% | 1023 hPa | 0 mm | - | - | - |
| 1777725916 | 17.22° C | 49% | 1023 hPa | 0 mm | - | - | - |
| 1777725316 | 17.22° C | 50% | 1022.9 hPa | 0 mm | - | - | - |
| 1777724717 | 17.22° C | 49% | 1022.7 hPa | 0 mm | - | - | - |
| 1777724116 | 17.22° C | 50% | 1022.6 hPa | 0 mm | - | - | - |
| 1777721716 | 17.78° C | 49% | 1022.8 hPa | 0 mm | - | - | - |
| 1777721116 | 17.22° C | 50% | 1022.7 hPa | 0 mm | - | - | - |
| 1777720516 | 17.78° C | 50% | 1022.7 hPa | 0 mm | - | - | - |
| 1777719916 | 17.78° C | 50% | 1022.6 hPa | 0 mm | - | - | - |
* Rain latest hour (hover to see other rain measurements)
** Current wind speed in m/s (hover to see current wind gust speed)